Lamoni, IA

3:09 AM CDT on May 23, 2017 (GMT -0500)
Lamoni Municipal

Weather History for KLWD - January, 2014

Change the Weather History Date:

Thursday, January 2, 2014

  Actual Average Record
Temperature  
Mean Temperature 0 °F 24 °F  
Max Temperature 10 °F 33 °F 60 °F (2004)
Min Temperature -10 °F 16 °F -13 °F (1979)
Degree Days  
Heating Degree Days 65 41  
Month to date heating degree days 121 82  
Since 1 July heating degree days 2667 2511  
Cooling Degree Days 0 0  
Month to date cooling degree days 0 0  
Year to date cooling degree days 0 0  
Moisture  
Dew Point -7 °F    
Average Humidity 67    
Maximum Humidity 83    
Minimum Humidity 50    
Precipitation  
Precipitation 0.00 in 0.03 in 0.98 in (1982)
Month to date precipitation 0.23 0.05  
Sea Level Pressure  
Sea Level Pressure 30.46 in    
Wind  
Wind Speed 10 mph (NNW)    
Max Wind Speed 20 mph    
Max Gust Speed 23 mph    
Visibility 10 miles    
Events      
T = Trace of Precipitation, MM = Missing Value Source: NWS Daily Summary

Daily Weather History Graph

Daily Weather History Graph

Search for Another Location

Airport or City:

Trip Planner

Search our weather history database for the weather conditions in past years. The results will help you decide how hot, cold, wet, or windy it might be!

Date:

Astronomy

Jan. 02, 2014 Rise Set
Actual Time 7:39 AM CST 5:00 PM CST
Civil Twilight 7:08 AM CST 5:30 PM CST
Nautical Twilight 6:34 AM CST 6:05 PM CST
Astronomical Twilight 6:01 AM CST 6:38 PM CST
Moon 8:20 AM CST (1/2) 6:58 PM CST (1/2)
Length of Visible Light 10h 22m
Length of Day
9h 20m
Waxing Crescent, 3% of the Moon is Illuminated
Jan 2
Waxing Crescent
Jan 7
First Quarter
Jan 15
Full
Jan 23
Last Quarter
Jan 30
New

Hourly Weather History & Observations

Time (CST) Temp. Windchill Dew Point Humidity Pressure Visibility Wind Dir Wind Speed Gust Speed Precip Events Conditions
12:53 AM 3.0 °F -15.5 °F -2.9 °F 76% 30.36 in 10.0 mi NNW 15.0 mph - N/A   Overcast
1:38 AM 1.0 °F -18.0 °F -5.1 °F 75% 30.28 in 10.0 mi North 15.0 mph - N/A   Scattered Clouds
1:53 AM 1.0 °F -16.6 °F -5.1 °F 75% 30.37 in 10.0 mi North 12.7 mph - N/A   Clear
2:53 AM -0.0 °F -18.0 °F -6.0 °F 76% 30.39 in 10.0 mi NNW 12.7 mph - N/A   Clear
3:53 AM -0.0 °F -16.3 °F -5.1 °F 79% 30.38 in 10.0 mi NNW 10.4 mph - N/A   Overcast
4:53 AM 1.9 °F -13.8 °F -4.0 °F 76% 30.39 in 10.0 mi NNW 10.4 mph - N/A   Overcast
5:53 AM 1.9 °F -13.8 °F -4.0 °F 76% 30.40 in 10.0 mi NNW 10.4 mph - N/A   Overcast
6:53 AM -0.0 °F -13.0 °F -6.0 °F 76% 30.40 in 10.0 mi NNW 6.9 mph - N/A   Clear
7:53 AM -0.9 °F -18.3 °F -6.0 °F 79% 30.43 in 10.0 mi NNW 11.5 mph - N/A   Mostly Cloudy
8:53 AM 1.0 °F -18.0 °F -5.1 °F 75% 30.45 in 10.0 mi NNW 15.0 mph - N/A   Overcast
9:53 AM 3.0 °F -14.8 °F -5.1 °F 69% 30.48 in 10.0 mi NNW 13.8 mph - N/A   Overcast
10:53 AM 3.9 °F -13.7 °F -5.1 °F 66% 30.49 in 10.0 mi NNW 13.8 mph - N/A   Overcast
11:53 AM 6.1 °F -9.5 °F -5.1 °F 60% 30.47 in 10.0 mi North 11.5 mph - N/A   Clear
12:53 PM 8.1 °F -5.3 °F -6.0 °F 53% 30.47 in 10.0 mi North 9.2 mph - N/A   Clear
1:53 PM 9.0 °F -5.9 °F -6.0 °F 51% 30.47 in 10.0 mi NNW 11.5 mph - N/A   Clear
2:53 PM 9.0 °F -6.6 °F -7.1 °F 48% 30.48 in 10.0 mi North 12.7 mph - N/A   Clear
3:53 PM 9.0 °F -4.2 °F -7.1 °F 48% 30.49 in 10.0 mi North 9.2 mph - N/A   Clear
4:53 PM 6.1 °F -5.6 °F -7.1 °F 55% 30.52 in 10.0 mi NNW 6.9 mph - N/A   Clear
5:53 PM 1.9 °F -10.6 °F -9.0 °F 60% 30.52 in 10.0 mi North 6.9 mph - N/A   Clear
6:53 PM 1.0 °F -8.7 °F -9.0 °F 63% 30.53 in 10.0 mi North 4.6 mph - N/A   Clear
7:53 PM -0.0 °F -13.0 °F -9.0 °F 66% 30.55 in 10.0 mi North 6.9 mph - N/A   Clear
8:53 PM -2.0 °F -13.9 °F -11.0 °F 66% 30.54 in 10.0 mi NNW 5.8 mph - N/A   Clear
9:53 PM -4.0 °F -12.4 °F -11.0 °F 72% 30.53 in 10.0 mi North 3.5 mph - N/A   Clear
10:53 PM -5.1 °F -13.6 °F -11.9 °F 72% 30.53 in 10.0 mi West 3.5 mph - N/A   Clear
11:53 PM -7.1 °F -15.9 °F -13.0 °F 75% 30.52 in 10.0 mi WNW 3.5 mph - N/A   Clear